JAL273 RJOB-RJTT

Flight info

Callsign JAL273
Flight time 0h 53m
Altitude 33000
Route OLIVE HYOGO SANDA Y289 SHTLE Y71 XAC
Aircraft B738/M-SDE2E3FGHIRWXY/LB1

Departure

Time 2026-04-24 22:59
Airport Okayama Momotaro Airport (RJOB)

Arrival

Time 2026-04-24 23:52
Airport Tokyo Haneda International Airport (RJTT)
Time Latitude Longitude Altitude Speed Heading
2026-04-24 22:32 34.75993 133.85380 813 ft 0 kts 330°
2026-04-24 22:48 34.75989 133.85383 813 ft 2 kts 330°
2026-04-24 22:48 34.75972 133.85395 813 ft 3 kts 330°
2026-04-24 22:49 34.75954 133.85407 813 ft 3 kts 330°
2026-04-24 22:49 34.75937 133.85419 813 ft 3 kts 329°
2026-04-24 22:49 34.75920 133.85432 813 ft 3 kts 324°
2026-04-24 22:49 34.75904 133.85447 813 ft 3 kts 317°
2026-04-24 22:50 34.75890 133.85465 813 ft 3 kts 308°
2026-04-24 22:50 34.75879 133.85483 813 ft 2 kts 296°
2026-04-24 22:50 34.75878 133.85487 813 ft 1 kts 295°
2026-04-24 22:52 34.75878 133.85486 813 ft 0 kts 294°
2026-04-24 22:53 34.75875 133.85482 813 ft 1 kts 246°
2026-04-24 22:53 34.75864 133.85472 813 ft 6 kts 220°
2026-04-24 22:53 34.75821 133.85416 813 ft 12 kts 232°
2026-04-24 22:53 34.75768 133.85306 813 ft 18 kts 238°
2026-04-24 22:54 34.75699 133.85165 813 ft 20 kts 238°
2026-04-24 22:54 34.75628 133.85025 814 ft 19 kts 238°
2026-04-24 22:54 34.75564 133.84887 808 ft 18 kts 240°
2026-04-24 22:54 34.75497 133.84756 808 ft 18 kts 239°
2026-04-24 22:55 34.75436 133.84629 814 ft 17 kts 239°
2026-04-24 22:55 34.75376 133.84506 810 ft 17 kts 239°
2026-04-24 22:55 34.75317 133.84388 813 ft 16 kts 239°
2026-04-24 22:55 34.75261 133.84274 814 ft 15 kts 239°
2026-04-24 22:56 34.75208 133.84165 814 ft 15 kts 239°
2026-04-24 22:56 34.75165 133.84089 814 ft 10 kts 221°
2026-04-24 22:56 34.75124 133.84074 814 ft 1 kts 173°
2026-04-24 22:56 34.75107 133.84078 814 ft 4 kts 166°
2026-04-24 22:57 34.75078 133.84099 813 ft 6 kts 147°
2026-04-24 22:57 34.75032 133.84135 813 ft 9 kts 147°
2026-04-24 22:57 34.75013 133.84159 814 ft 1 kts 89°
2026-04-24 22:57 34.75018 133.84176 809 ft 3 kts 71°
2026-04-24 22:58 34.75024 133.84189 810 ft 3 kts 60°
2026-04-24 22:58 34.75161 133.84467 808 ft 75 kts 58°
2026-04-24 22:58 34.75547 133.85247 808 ft 138 kts 59°
2026-04-24 22:58 34.76113 133.86382 1085 ft 166 kts 58°
2026-04-24 22:59 34.76732 133.87620 1794 ft 175 kts 58°
2026-04-24 22:59 34.77366 133.88862 2718 ft 170 kts 60°
2026-04-24 22:59 34.78610 133.91453 4421 ft 178 kts 60°
2026-04-24 23:00 34.79213 133.92788 5257 ft 180 kts 63°
2026-04-24 23:00 34.79392 133.94317 5787 ft 192 kts 93°
2026-04-24 23:00 34.79209 133.95960 6262 ft 201 kts 96°
2026-04-24 23:00 34.79027 133.97608 7023 ft 192 kts 94°
2026-04-24 23:01 34.78876 133.99213 7733 ft 192 kts 93°
2026-04-24 23:01 34.78739 134.00873 8096 ft 207 kts 92°
2026-04-24 23:01 34.78602 134.02719 8280 ft 230 kts 92°
2026-04-24 23:01 34.78454 134.04742 8562 ft 248 kts 93°
2026-04-24 23:02 34.78297 134.06930 8794 ft 271 kts 93°
2026-04-24 23:02 34.78131 134.09231 9446 ft 279 kts 93°
2026-04-24 23:02 34.77957 134.11596 10258 ft 282 kts 93°
2026-04-24 23:02 34.77778 134.14054 10575 ft 304 kts 93°
2026-04-24 23:03 34.77585 134.16713 10789 ft 327 kts 94°
2026-04-24 23:03 34.77377 134.19565 11289 ft 339 kts 94°
2026-04-24 23:03 34.77169 134.22401 11973 ft 344 kts 94°
2026-04-24 23:03 34.76955 134.25309 12688 ft 348 kts 95°
2026-04-24 23:04 34.76738 134.28264 13386 ft 353 kts 95°
2026-04-24 23:04 34.76518 134.31257 14036 ft 358 kts 95°
2026-04-24 23:04 34.76294 134.34297 14612 ft 364 kts 96°
2026-04-24 23:04 34.76063 134.37397 15163 ft 371 kts 96°
2026-04-24 23:05 34.75831 134.40549 15729 ft 378 kts 96°
2026-04-24 23:05 34.75595 134.43759 16298 ft 383 kts 95°
2026-04-24 23:05 34.75753 134.47014 16813 ft 391 kts 78°
2026-04-24 23:05 34.76378 134.50254 17383 ft 396 kts 76°
2026-04-24 23:06 34.77045 134.53529 17912 ft 402 kts 76°
2026-04-24 23:06 34.77722 134.56862 18446 ft 408 kts 76°
2026-04-24 23:06 34.78397 134.60245 18913 ft 414 kts 77°
2026-04-24 23:06 34.79067 134.63675 19372 ft 419 kts 77°
2026-04-24 23:07 34.79736 134.67152 19823 ft 425 kts 77°
2026-04-24 23:07 34.80408 134.70677 20267 ft 431 kts 77°
2026-04-24 23:07 34.81079 134.74214 20697 ft 436 kts 77°
2026-04-24 23:07 34.81765 134.77841 21114 ft 442 kts 77°
2026-04-24 23:08 34.82459 134.81518 21546 ft 447 kts 77°
2026-04-24 23:08 34.83157 134.85222 21967 ft 453 kts 77°
2026-04-24 23:08 34.83865 134.88978 22374 ft 458 kts 77°
2026-04-24 23:08 34.84338 134.91491 22624 ft 462 kts 77°
2026-04-24 23:09 34.84410 134.91877 22661 ft 462 kts 77°
2026-04-24 23:09 34.85133 134.95724 23044 ft 468 kts 77°
2026-04-24 23:09 34.85862 134.99610 23438 ft 473 kts 77°
2026-04-24 23:09 34.86617 135.03522 23813 ft 478 kts 77°
2026-04-24 23:10 34.87405 135.07479 24133 ft 483 kts 76°
2026-04-24 23:10 34.88197 135.11418 24465 ft 486 kts 76°
2026-04-24 23:10 34.89001 135.15427 24807 ft 490 kts 76°
2026-04-24 23:10 34.89809 135.19485 25128 ft 494 kts 77°
2026-04-24 23:11 34.90618 135.23573 25440 ft 498 kts 77°
2026-04-24 23:11 34.91430 135.27695 25762 ft 502 kts 77°
2026-04-24 23:11 34.92245 135.31842 26083 ft 506 kts 77°
2026-04-24 23:11 34.93001 135.36042 26376 ft 508 kts 83°
2026-04-24 23:12 34.93144 135.38944 26573 ft 508 kts 95°
2026-04-24 23:12 34.92838 135.44630 26999 ft 510 kts 98°
2026-04-24 23:12 34.92624 135.47550 27195 ft 512 kts 98°
2026-04-24 23:12 34.92301 135.51811 27588 ft 513 kts 98°
2026-04-24 23:13 34.91984 135.56169 27805 ft 518 kts 98°
2026-04-24 23:13 34.91686 135.60573 28025 ft 523 kts 98°
2026-04-24 23:13 34.91410 135.65004 28333 ft 526 kts 97°
2026-04-24 23:13 34.91145 135.69462 28595 ft 529 kts 97°
2026-04-24 23:14 34.90883 135.73949 28876 ft 532 kts 97°
2026-04-24 23:14 34.90619 135.78458 29135 ft 536 kts 97°
2026-04-24 23:14 34.90349 135.83003 29399 ft 539 kts 97°
2026-04-24 23:14 34.90074 135.87561 29615 ft 542 kts 97°
2026-04-24 23:15 34.89793 135.92164 29871 ft 544 kts 97°
2026-04-24 23:15 34.89507 135.96775 30172 ft 546 kts 97°
2026-04-24 23:15 34.89222 136.01385 30465 ft 547 kts 98°
2026-04-24 23:15 34.88937 136.05962 30631 ft 550 kts 98°
2026-04-24 23:16 34.88646 136.10628 30843 ft 552 kts 98°
2026-04-24 23:16 34.88354 136.15301 31082 ft 554 kts 98°
2026-04-24 23:16 34.88058 136.19977 31350 ft 554 kts 99°
2026-04-24 23:16 34.87759 136.24667 31615 ft 555 kts 99°
2026-04-24 23:17 34.87458 136.29352 31895 ft 556 kts 99°
2026-04-24 23:17 34.87170 136.33841 32150 ft 557 kts 99°
2026-04-24 23:17 34.86867 136.38540 32410 ft 557 kts 100°
2026-04-24 23:17 34.86563 136.43239 32723 ft 556 kts 100°
2026-04-24 23:18 34.86258 136.47935 33034 ft 556 kts 100°
2026-04-24 23:18 34.85950 136.52621 33213 ft 557 kts 101°
2026-04-24 23:18 34.85640 136.57285 33179 ft 560 kts 101°
2026-04-24 23:19 34.85014 136.66707 33182 ft 555 kts 101°
2026-04-24 23:19 34.84387 136.76044 33203 ft 553 kts 101°
2026-04-24 23:20 34.83749 136.85372 33183 ft 553 kts 101°
2026-04-24 23:20 34.83107 136.94696 33180 ft 553 kts 101°
2026-04-24 23:21 34.82223 137.03981 33194 ft 550 kts 105°
2026-04-24 23:21 34.81109 137.13192 33184 ft 550 kts 105°
2026-04-24 23:22 34.80018 137.22419 33179 ft 551 kts 105°
2026-04-24 23:22 34.78976 137.31609 33183 ft 552 kts 104°
2026-04-24 23:23 34.77934 137.40853 33195 ft 552 kts 104°
2026-04-24 23:23 34.76877 137.50118 33187 ft 552 kts 104°
2026-04-24 23:24 34.75812 137.59362 33184 ft 552 kts 104°
2026-04-24 23:24 34.74742 137.68606 33198 ft 552 kts 104°
2026-04-24 23:25 34.73808 137.77889 33200 ft 554 kts 102°
2026-04-24 23:25 34.73378 137.82556 32831 ft 558 kts 102°
2026-04-24 23:25 34.72942 137.87253 32135 ft 559 kts 102°
2026-04-24 23:25 34.72496 137.91938 31670 ft 555 kts 102°
2026-04-24 23:26 34.72046 137.96576 31205 ft 551 kts 101°
2026-04-24 23:26 34.71591 138.01196 30753 ft 548 kts 101°
2026-04-24 23:26 34.71290 138.05802 30385 ft 544 kts 94°
2026-04-24 23:26 34.71264 138.10318 30058 ft 538 kts 92°
2026-04-24 23:27 34.71320 138.14853 29575 ft 534 kts 91°
2026-04-24 23:27 34.71399 138.19338 29111 ft 528 kts 91°
2026-04-24 23:27 34.71468 138.23786 28652 ft 524 kts 91°
2026-04-24 23:27 34.71516 138.28202 28194 ft 520 kts 91°
2026-04-24 23:28 34.71544 138.32574 27732 ft 515 kts 92°
2026-04-24 23:28 34.71559 138.36915 27293 ft 511 kts 92°
2026-04-24 23:28 34.71568 138.41221 26846 ft 507 kts 92°
2026-04-24 23:28 34.71575 138.45488 26417 ft 503 kts 92°
2026-04-24 23:29 34.71581 138.49727 25979 ft 499 kts 92°
2026-04-24 23:29 34.71587 138.53873 25558 ft 495 kts 92°
2026-04-24 23:29 34.71592 138.58055 25124 ft 492 kts 92°
2026-04-24 23:29 34.71597 138.62211 24682 ft 489 kts 92°
2026-04-24 23:30 34.71600 138.66334 24236 ft 487 kts 92°
2026-04-24 23:30 34.71602 138.70435 23790 ft 484 kts 92°
2026-04-24 23:30 34.71603 138.74514 23289 ft 480 kts 92°
2026-04-24 23:30 34.71602 138.78561 22842 ft 476 kts 92°
2026-04-24 23:31 34.71598 138.82569 22446 ft 470 kts 92°
2026-04-24 23:31 34.71581 138.86507 22187 ft 461 kts 92°
2026-04-24 23:31 34.71559 138.90371 21832 ft 454 kts 92°
2026-04-24 23:31 34.71536 138.94182 21438 ft 448 kts 92°
2026-04-24 23:32 34.71513 138.97911 21006 ft 444 kts 93°
2026-04-24 23:32 34.71490 139.01652 20616 ft 439 kts 92°
2026-04-24 23:32 34.71470 139.05320 20244 ft 428 kts 93°
2026-04-24 23:32 34.71451 139.08884 19839 ft 416 kts 93°
2026-04-24 23:33 34.71430 139.12354 19441 ft 404 kts 93°
2026-04-24 23:33 34.71407 139.15755 19062 ft 401 kts 94°
2026-04-24 23:33 34.71382 139.19133 18677 ft 398 kts 94°
2026-04-24 23:33 34.71356 139.22489 18250 ft 395 kts 93°
2026-04-24 23:34 34.71330 139.25822 17806 ft 393 kts 93°
2026-04-24 23:34 34.71304 139.29086 17394 ft 389 kts 92°
2026-04-24 23:34 34.71277 139.32402 16988 ft 386 kts 92°
2026-04-24 23:34 34.71250 139.35651 16619 ft 383 kts 92°
2026-04-24 23:35 34.71314 139.38884 16200 ft 382 kts 83°
2026-04-24 23:35 34.71837 139.42028 15815 ft 378 kts 73°
2026-04-24 23:35 34.72753 139.44941 15476 ft 372 kts 62°
2026-04-24 23:35 34.73983 139.47692 15110 ft 368 kts 58°
2026-04-24 23:36 34.75249 139.50385 14726 ft 365 kts 58°
2026-04-24 23:36 34.76504 139.53045 14364 ft 361 kts 57°
2026-04-24 23:36 34.77738 139.55687 14026 ft 356 kts 57°
2026-04-24 23:36 34.78934 139.58274 13870 ft 346 kts 58°
2026-04-24 23:37 34.80091 139.60790 13702 ft 336 kts 58°
2026-04-24 23:37 34.81213 139.63238 13555 ft 326 kts 58°
2026-04-24 23:37 34.83354 139.67924 13280 ft 308 kts 58°
2026-04-24 23:38 34.84379 139.70170 13115 ft 300 kts 58°
2026-04-24 23:38 34.85385 139.72378 12849 ft 297 kts 58°
2026-04-24 23:38 34.86389 139.74584 12430 ft 299 kts 58°
2026-04-24 23:38 34.87383 139.76774 12140 ft 291 kts 59°
2026-04-24 23:39 34.88542 139.78680 11851 ft 280 kts 38°
2026-04-24 23:39 34.90113 139.80010 11650 ft 273 kts 29°
2026-04-24 23:39 34.91745 139.81185 11405 ft 271 kts 28°
2026-04-24 23:39 34.93373 139.82332 11165 ft 269 kts 28°
2026-04-24 23:40 34.94991 139.83477 10941 ft 269 kts 29°
2026-04-24 23:40 34.96601 139.84624 10699 ft 267 kts 29°
2026-04-24 23:40 34.98202 139.85770 10465 ft 266 kts 29°
2026-04-24 23:40 34.99795 139.86917 10238 ft 265 kts 29°
2026-04-24 23:41 35.01379 139.88061 9992 ft 264 kts 29°
2026-04-24 23:41 35.02957 139.89203 9742 ft 263 kts 29°
2026-04-24 23:41 35.04530 139.90342 9503 ft 262 kts 29°
2026-04-24 23:41 35.06090 139.91474 9272 ft 260 kts 29°
2026-04-24 23:42 35.07626 139.92588 9048 ft 259 kts 29°
2026-04-24 23:42 35.09190 139.93724 8826 ft 258 kts 29°
2026-04-24 23:42 35.10733 139.94845 8593 ft 258 kts 29°
2026-04-24 23:42 35.12253 139.95949 8371 ft 257 kts 29°
2026-04-24 23:43 35.13804 139.97077 8153 ft 256 kts 28°
2026-04-24 23:43 35.15403 139.97939 7804 ft 257 kts
2026-04-24 23:43 35.17200 139.98060 7378 ft 262 kts
2026-04-24 23:43 35.19049 139.98109 6858 ft 270 kts
2026-04-24 23:44 35.20948 139.98167 6322 ft 275 kts
2026-04-24 23:44 35.22864 139.98231 5755 ft 275 kts
2026-04-24 23:44 35.24776 139.98295 5247 ft 273 kts
2026-04-24 23:44 35.26586 139.97959 5039 ft 260 kts 334°
2026-04-24 23:45 35.28072 139.96821 4998 ft 244 kts 328°
2026-04-24 23:45 35.29462 139.95756 4982 ft 227 kts 330°
2026-04-24 23:45 35.30811 139.94778 4998 ft 224 kts 331°
2026-04-24 23:45 35.32167 139.93826 4913 ft 226 kts 332°
2026-04-24 23:46 35.33559 139.92845 4608 ft 233 kts 332°
2026-04-24 23:46 35.34965 139.91847 4297 ft 235 kts 332°
2026-04-24 23:46 35.36380 139.90842 4005 ft 235 kts 332°
2026-04-24 23:46 35.37788 139.89841 3665 ft 231 kts 332°
2026-04-24 23:47 35.39125 139.88889 3364 ft 219 kts 333°
2026-04-24 23:47 35.40405 139.87979 3062 ft 207 kts 333°
2026-04-24 23:47 35.41618 139.87116 2793 ft 196 kts 333°
2026-04-24 23:47 35.42683 139.86359 2539 ft 185 kts 334°
2026-04-24 23:48 35.43072 139.86083 2447 ft 181 kts 334°
2026-04-24 23:48 35.44124 139.85336 2241 ft 166 kts 334°
2026-04-24 23:48 35.45104 139.84641 2010 ft 161 kts 334°
2026-04-24 23:49 35.46070 139.83954 1812 ft 162 kts 334°
2026-04-24 23:49 35.47040 139.83266 1565 ft 158 kts 334°
2026-04-24 23:49 35.47980 139.82599 1342 ft 154 kts 334°
2026-04-24 23:49 35.48633 139.82136 1179 ft 152 kts 334°
2026-04-24 23:50 35.49545 139.81481 917 ft 153 kts 334°
2026-04-24 23:50 35.50471 139.80834 655 ft 153 kts 334°
2026-04-24 23:50 35.51386 139.80195 419 ft 150 kts 334°
2026-04-24 23:50 35.52253 139.79557 342 ft 143 kts 333°
2026-04-24 23:51 35.53114 139.78946 208 ft 147 kts 334°
2026-04-24 23:51 35.54003 139.78320 33 ft 149 kts 333°
2026-04-24 23:51 35.54807 139.77753 22 ft 108 kts 329°
2026-04-24 23:51 35.55274 139.77422 21 ft 51 kts 333°
2026-04-24 23:52 35.55505 139.77353 21 ft 20 kts 358°
2026-04-24 23:52 35.55579 139.77442 21 ft 8 kts 107°
2026-04-24 23:52 35.55537 139.77490 22 ft 8 kts 149°
2026-04-24 23:52 35.55486 139.77526 23 ft 10 kts 150°
2026-04-24 23:53 35.55404 139.77584 24 ft 18 kts 149°
2026-04-24 23:53 35.55273 139.77678 23 ft 25 kts 150°
2026-04-24 23:53 35.55121 139.77785 21 ft 25 kts 150°
2026-04-24 23:53 35.54977 139.77887 21 ft 23 kts 150°
2026-04-24 23:54 35.54845 139.77981 20 ft 21 kts 149°
2026-04-24 23:54 35.54724 139.78067 22 ft 19 kts 150°
2026-04-24 23:54 35.54614 139.78145 21 ft 18 kts 147°
2026-04-24 23:54 35.54594 139.78237 22 ft 9 kts 76°
2026-04-24 23:55 35.54571 139.78302 23 ft 9 kts 144°
2026-04-24 23:55 35.54502 139.78351 24 ft 15 kts 150°
2026-04-24 23:55 35.54458 139.78406 22 ft 5 kts 93°
2026-04-24 23:55 35.54474 139.78446 24 ft 5 kts 59°
2026-04-24 23:56 35.54486 139.78471 23 ft 0 kts 60°
2026-04-24 23:56 35.54487 139.78473 23 ft 0 kts 60°
2026-04-24 23:56 35.54487 139.78474 23 ft 0 kts 60°
2026-04-24 23:56 35.54488 139.78474 23 ft 0 kts 60°